Regional Weather Roundup
Issued by NWS

Home | Current Version | Previous Version | Text Only | Print | Product List | Glossary On
Versions: 1 2 3 4 5 6 7 8 9 10 11 12 13 14 15 16 17 18 19 20 21 22 23 24 25 26 27 28 29 30 31 32 33 34 35 36 37 38 39 40 41 42 43 44 45 46 47 48 49 50
000
ASUS42 KTBW 240316
RWRFL
FLORIDA REGIONAL WEATHER ROUNDUP
NATIONAL WEATHER SERVICE TAMPA BAY RUSKIN FL
1100 PM EDT WED AUG 23 2017

NOTE: "FAIR" INDICATES FEW OR NO CLOUDS BELOW 12,000 FEET WITH NO
SIGNIFICANT WEATHER AND/OR OBSTRUCTIONS TO VISIBILITY.

FLZ001>010-012>015-112-114-115-240400-
PANHANDLE FLORIDA

CITY           SKY/WX    TMP DP  RH WIND       PRES   REMARKS
PENSACOLA      CLOUDY    79  73  82 N5        29.90R
PENSACOLA NAS  CLOUDY    78  70  76 CALM      29.89R
MILTON NAS     CLOUDY    75  74  96 N3        29.92
CRESTVIEW      CLOUDY    76  73  91 CALM      29.92R
DUKE FIELD     CLOUDY    76  73  88 CALM      29.91R
VALPARAISO     MOCLDY    80  72  77 N5        29.89S
MARY ESTHER    CLOUDY    78  69  73 CALM      29.88S
PANAMA CITY    FAIR      83  75  77 CALM      29.89R
TYNDALL AFB    CLEAR     84  74  70 W6        29.90R
APALACHICOLA   PTCLDY    81  76  84 CALM      29.91R

STATION/POSITION SKY/WX   TEMP    WIND        PRES    WAVE   SWELL
                          AIR SEA DIR/SP/G            HT/PER HT/PER
                          (F)     (DEG/KT/KT) (MB)    (FT/S) (FT/S)
30.1N   87.6W              85 88  240/  6/  8 1012.2R   1/ 6   2/ 6
29.2N   88.2W              85 88  170/  4/  6 1012.4
28.8N   86.0W              85 87  160/  4/  4 1012.5F   2/ 8   2/ 8
PANAMA CITY BEAC           86     260/ 11/ 12 1012.8R
TOWER C                    85                 1013.4R
28.5N   84.5W              85 87  300/  4/  4 1012.7R   1/ 8   2/ 8

$$
FLZ011-016>038-118-127-128-134-139-239-240400-
NORTH FLORIDA

CITY           SKY/WX    TMP DP  RH WIND       PRES   REMARKS
MARIANNA       CLOUDY    83  75  77 W5        29.89R
TALLAHASSEE    PTCLDY    82  75  79 SW5       29.90R
PERRY          CLEAR     79  75  87 CALM      29.92R
LIVE OAK       CLEAR     77  79 100 CALM      29.92R
CROSS CITY     TSTM      76  75  95 SE6       29.98R FOG
LAKE CITY      FAIR      77  73  88 CALM      29.92S
GAINESVILLE    CLOUDY    80  72  76 CALM      29.93R
WILLISTON      CLEAR     81  75  83 SW5       29.92R
PALATKA        FAIR      81  79  94 S3        29.91R
MAYPORT NAS    PTCLDY    81  77  88 S6        29.89S
JACKSONVILLE   PTCLDY    80  76  87 S3        29.89S
JAX NAS        MOCLDY    84  76  76 S12       29.90S
JAX CECIL      CLEAR     79  75  89 CALM      29.90S
FERNANDINA BEA FAIR      82  73  74 S7        29.88S
ST AUGUSTINE   PTCLDY    81  76  84 S6        29.91R
PALM COAST     FAIR      79  79  98 S6        29.91R

STATION/POSITION SKY/WX   TEMP    WIND        PRES    WAVE   SWELL
                          AIR SEA DIR/SP/G            HT/PER HT/PER
                          (F)     (DEG/KT/KT) (MB)    (FT/S) (FT/S)
SHELL POINT      NOT AVBL
KEATON BEACH               82      40/  2/  3 1012.4R
CEDAR KEY                  80     240/  8/ 12 1013.6R
FERNANDINA                 84 86  160/  6/  9 1013.0R
30.7N   81.3W                 85                N/A     4/ 9
MAYPORT                    82 85  200/  5/  6 1012.7R
31.4N   80.9W              85 85  180/ 17/ 21 1011.5R   4/ 9   3/ 9
ST AUGUSTINE               82 85  190/  7/  9 1012.5R

$$
FLZ040-043>046-052-053-057-058-063-144-240400-
INTERIOR CENTRAL FLORIDA

CITY           SKY/WX    TMP DP  RH WIND       PRES   REMARKS
OCALA          CLEAR     79  75  87 CALM      29.92R
THE VILLAGES     N/A     81  77  89 CALM      29.82R
LEESBURG       CLEAR     83  77  82 SE6       29.92R
SANFORD        CLEAR     81  76  84 SE8       29.91R
ORLANDO EXEC   CLEAR     80  77  90 SE9       29.92R
ORLANDO INTL   CLEAR     79  77  94 SE6       29.92R
KISSIMMEE      PTCLDY    80  76  87 SE7       29.93R
WINTER HAVEN   PTCLDY    80  73  79 SE5       29.93R
LAKELAND         N/A     79  77  94 CALM      29.93R
BARTOW         FAIR      77 N/A N/A S3        29.93R
SEBRING        FAIR      81  76  83 S5        29.92R
OKEECHOBEE     CLOUDY    77  73  88 SE5       29.91R

$$
FLZ041-047-054-059-064-141-147-240400-
EAST CENTRAL FLORIDA

CITY           SKY/WX    TMP DP  RH WIND       PRES   REMARKS
DAYTONA BEACH  PTCLDY    82  77  84 S6        29.91R
DELAND         CLEAR     81  77  89 SE6       29.91R
JFK SPACE CTR  PTCLDY    81  80  96 S6        29.90R
CAPE CANAVERAL CLEAR     81  77  85 SE10      29.90R
PATRICK AFB    CLEAR     83  76  79 SE13      29.91R
MELBOURNE      CLEAR     82  77  84 S8        29.91R
VERO BEACH     CLOUDY    81  74  79 SE10      29.91R
FT PIERCE      PTCLDY    77  76  96 SE6       29.91S
STUART         CLOUDY    81  81 100 S5        29.92S

STATION/POSITION SKY/WX   TEMP    WIND        PRES    WAVE   SWELL
                          AIR SEA DIR/SP/G            HT/PER HT/PER
                          (F)     (DEG/KT/KT) (MB)    (FT/S) (FT/S)
28.5N   80.2W              84 82  160/ 14/ 17 1014.0
28.9N   78.5W                     170/ 14/ 17 1013.0R   3/ 8   2/ 8
TRIDENT PIER               82 86  150/  7/ 12 1014.5R
28.4N   80.5W                 85                N/A     2/ 9
27.5N   80.2W                 84                N/A     3/ 9

$$
FLZ050-056-061-142-242-148-248-149-249-151-251-155-255-
160-260-240400-
WEST CENTRAL FLORIDA

CITY           SKY/WX    TMP DP  RH WIND       PRES   REMARKS
CRYSTAL RIVER  FAIR      79  73  83 CALM      29.92R
INVERNESS      FAIR      77  75  94 CALM      29.92R
BROOKSVILLE    CLOUDY    78  75  90 CALM      29.92R
CLEARWATER AIR FAIR      77  77 100 S3        29.91F
ST PETE CLEARW CLOUDY    80  77  90 S7        29.91S
TAMPA INTL     MOCLDY    80  76  87 S5        29.92R
TAMPA EXEC     MOCLDY    79  75  89 CALM      29.93R
PLANT CITY     MOCLDY    79  79 100 CALM      29.94R
MACDILL AFB    CLOUDY    77  77 100 CALM      29.92R
PETER O KNIGHT CLOUDY    81  81 100 CALM      29.92S
ST PETERSBURG  CLOUDY    81  77  88 W5        29.90R
SARASOTA       LGT RAIN  77  77 100 CALM      29.90R
VENICE         FAIR      77  77 100 N3        29.92R

STATION/POSITION SKY/WX   TEMP    WIND        PRES    WAVE   SWELL
                          AIR SEA DIR/SP/G            HT/PER HT/PER
                          (F)     (DEG/KT/KT) (MB)    (FT/S) (FT/S)
CLEARWATER BEACH           81 89  190/  9/ 12 1013.0R
MIDDLE TAMPA BAY           80     200/  3/  4 1013.4R
VENICE                     77 88   10/  4/  5 1013.0R

$$
FLZ066-069-070-075>078-162-262-165-265-240400-
SOUTHWEST FLORIDA AND KEYS

CITY           SKY/WX    TMP DP  RH WIND       PRES   REMARKS
PUNTA GORDA    CLOUDY    77  76  96 SE3       29.92R
FT MYERS       CLOUDY    78  78 100 E3        29.90R
SOUTHWEST INTL CLOUDY    78  75  90 E5        29.91R
NAPLES         CLOUDY    77  76  96 NE7       29.89F
IMMOKALEE      FAIR      77  75  94 SE3       29.92S
MARATHON       CLOUDY    82  77  84 E9        29.90R
KEY WEST NAS   MOCLDY    82  77  84 SE9       29.89R
KEY WEST INTL  MOCLDY    84  76  76 SE12      29.90R

STATION/POSITION SKY/WX   TEMP    WIND        PRES    WAVE   SWELL
                          AIR SEA DIR/SP/G            HT/PER HT/PER
                          (F)     (DEG/KT/KT) (MB)    (FT/S) (FT/S)
NAPLES                        89   70/  5/  6 1012.2F
DRY TORTUGAS               85     140/  8/  9 1011.7R
SAND KEY                   84                 1012.7R

$$
FLZ067-068-071>074-168-172>174-240400-
SOUTHEAST FLORIDA

CITY           SKY/WX    TMP DP  RH WIND       PRES   REMARKS
W PALM BEACH   CLOUDY    82  75  79 SE9       29.92S
BOCA RATON     CLEAR     82  75  78 SE6       29.91
FT LAUDER-EXEC MOCLDY    82  76  81 SE9       29.91R
FT LAUDERDALE  MOCLDY    83  75  77 SE13      29.91R
POMPANO BEACH  PTCLDY    84  75  74 SE10      29.91R
PEMBROKE PINES MOCLDY    82  76  81 E6        29.93R
OPA LOCKA      PTCLDY    81  79  94 E5        29.92R
MIAMI          CLOUDY    83  76  79 E7        29.91R
WEST KENDALL   CLOUDY    80  76  87 E5        29.91R
HOMESTEAD      MOCLDY    80  77  93 SE5       29.90R

STATION/POSITION SKY/WX   TEMP    WIND        PRES    WAVE   SWELL
                          AIR SEA DIR/SP/G            HT/PER HT/PER
                          (F)     (DEG/KT/KT) (MB)    (FT/S) (FT/S)
PORT EVERGLADES            84     140/ 12/ 15 1013.1R
VIRGINIA KEY               84 87  110/ 10/ 13 1012.3R
LAKE WORTH                        160/ 13/ 15   N/A
FOWEY ROCKS                84 85  120/ 14/ 15 1013.2R
SETTLEMENT POINT           84     150/ 11/ 14 1013.4R

$$




USA.gov is the U.S. government's official web portal to all federal, state and local government web resources and services.